{"data":{"norad_id":68592,"intl_designator":"2026-072V","name":"KUIPER-00290","alt_names":[],"object_type":"PAYLOAD","status":"ACTIVE","operator":null,"country":"US","launch_date":"2026-04-04","launch_site_code":"AFETR","launch_vehicle":null,"mission":null,"orbit_class":"UNKNOWN","rcs_meters":null,"size_class":null,"mass_kg":null,"dimensions":null,"purposes":[],"wikipedia_slug":null,"has_3d_model":false,"image_url":null,"decayed_at":null,"tle_current":{"epoch":"2026-09-19T02:38:25.641600Z","epoch_age_seconds":186579,"freshness":"STALE","line1":"1 68592U 26072V   26262.11001900 -.00003333  00000+0 -40840-3 0  9999","line2":"2 68592  51.9010 122.8269 0000744  57.5446 302.5588 14.79937780 25276","mean_motion":14.7993778,"eccentricity":7.44e-5,"inclination_deg":51.901,"raan_deg":122.8269,"arg_perigee_deg":57.5446,"mean_anomaly_deg":302.5588,"bstar":-0.0004084,"rev_number":2527,"period_min":97.30138790024,"perigee_km":628.99917021912,"apogee_km":630.04190966106,"semimajor_km":7007.6575399401,"source":"CELESTRAK","updated_at":"2026-09-20T09:00:24.323366Z"}}}